FW7275 Weather Reports


time (UTC)temp
F
wind
direction
speed
knots
gust
knots
rain 1hr
in
rain 24hr
in
rain mn
in
humidity
%
barometer
mb
20260506002032 54 0 0.0 0.0 0.00 0.00 0.00 86
20260506001025 54 0 0.0 0.0 0.00 0.00 0.00 86
20260505234030 54 0 0.0 0.0 0.01 0.00 0.02 85
20260505233029 54 0 0.0 0.0 0.02 0.00 0.02 85
20260505232021 54 0 0.0 0.0 0.02 0.00 0.02 85
20260505231023 54 0 0.0 0.0 0.02 0.00 0.02 85
20260505230041 54 0 0.0 0.0 0.02 0.00 0.02 85
20260505224034 56 0 0.0 0.0 0.01 0.00 0.01 83
20260505222023 56 0 0.0 0.0 0.00 0.00 0.00 83
20260505220031 56 0 0.0 0.0 0.00 0.00 0.00 82
20260505215025 56 0 0.0 0.0 0.00 0.00 0.00 81
20260505214020 56 0 0.0 0.0 0.00 0.00 0.00 81
20260505213035 57 0 0.0 0.0 0.00 0.00 0.00 80
20260505212024 58 0 0.0 0.0 0.00 0.00 0.00 78
20260505211025 59 0 0.0 0.0 0.00 0.00 0.00 74
20260505205031 59 0 0.0 0.0 0.00 0.00 0.00 75
20260505204028 59 0 0.0 0.0 0.00 0.00 0.00 76
20260505203031 58 0 0.0 0.0 0.00 0.00 0.00 77
20260505202045 58 0 0.0 0.0 0.00 0.00 0.00 79
20260505201025 58 0 0.0 0.0 0.00 0.00 0.00 79
20260505194025 59 0 0.0 0.0 0.00 0.00 0.00 77
20260505193027 60 0 0.0 0.0 0.00 0.00 0.00 76
20260505192032 60 0 0.0 0.0 0.00 0.00 0.00 75
20260505190038 60 0 0.0 0.0 0.00 0.00 0.00 74
20260505184027 61 0 0.0 0.0 0.00 0.00 0.00 71
20260505183033 61 0 0.0 0.0 0.00 0.00 0.00 70
20260505182020 62 0 0.0 0.0 0.00 0.00 0.00 68
20260505181030 63 0 0.0 0.0 0.00 0.00 0.00 68
20260505180035 63 0 0.0 0.0 0.00 0.00 0.00 66
20260505175021 64 0 0.0 0.0 0.00 0.00 0.00 66
20260505174036 64 0 0.0 0.0 0.00 0.00 0.00 64
20260505173026 64 0 0.0 0.0 0.00 0.00 0.00 64
20260505172026 64 0 0.0 0.0 0.00 0.00 0.00 64
20260505171023 66 0 0.0 0.0 0.00 0.00 0.00 63
20260505170041 66 0 0.0 0.0 0.00 0.00 0.00 61
20260505165023 67 0 0.0 0.0 0.00 0.00 0.00 61
20260505164028 66 0 0.0 0.0 0.00 0.00 0.00 63
20260505162027 65 0 0.0 0.0 0.00 0.00 0.00 64
20260505161030 65 0 0.0 0.0 0.00 0.00 0.00 63
20260505153029 65 0 0.0 0.0 0.00 0.00 0.00 63
20260505152033 65 0 0.0 0.0 0.00 0.00 0.00 63
20260505151025 66 0 0.0 0.0 0.00 0.00 0.00 62
20260505124030 79 0 0.0 0.0 0.00 0.00 0.00 33
20260505123028 79 0 0.0 0.0 0.00 0.00 0.00 34
20260505122022 80 0 0.0 0.0 0.00 0.00 0.00 33
20260505121027 82 0 0.0 0.0 0.00 0.00 0.00 32
20260505120035 82 0 0.0 0.0 0.00 0.00 0.00 32
20260505115027 81 0 0.0 0.0 0.00 0.00 0.00 34
20260505114022 80 0 0.0 0.0 0.00 0.00 0.00 34
20260505113030 80 0 0.0 0.0 0.00 0.00 0.00 36
20260505111028 80 0 0.0 0.0 0.00 0.00 0.00 36
20260505101032 78 0 0.0 0.0 0.00 0.00 0.00 38
20260505100029 78 0 0.0 0.0 0.00 0.00 0.00 39
20260505095020 76 0 0.0 0.0 0.00 0.00 0.00 42
20260505094041 78 0 0.0 0.0 0.00 0.00 0.00 45
20260505093032 76 0 0.0 0.0 0.00 0.00 0.00 46
20260505092031 76 0 0.0 0.0 0.00 0.00 0.00 47
20260505084020 73 0 0.0 0.0 0.00 0.00 0.00 52
20260505082035 69 0 0.0 0.0 0.00 0.00 0.00 60
20260505081031 67 0 0.0 0.0 0.00 0.00 0.00 63
20260505075033 66 0 0.0 0.0 0.00 0.00 0.00 62
20260505074029 67 0 0.0 0.0 0.00 0.00 0.00 61
20260505072025 69 0 0.0 0.0 0.00 0.00 0.00 61
20260505070027 67 0 0.0 0.0 0.00 0.00 0.00 63
20260505064027 67 0 0.0 0.0 0.00 0.00 0.00 63
20260505063037 67 0 0.0 0.0 0.00 0.00 0.00 63
20260505061033 65 0 0.0 0.0 0.00 0.00 0.00 64
20260505060033 65 0 0.0 0.0 0.00 0.00 0.00 65
20260505054028 63 0 0.0 0.0 0.00 0.00 0.00 68
20260505053023 61 0 0.0 0.0 0.00 0.00 0.00 71
20260505052023 59 0 0.0 0.0 0.00 0.00 0.00 74
20260505051018 56 0 0.0 0.0 0.00 0.00 0.00 77
20260505041025 48 0 0.0 0.0 0.00 0.00 0.00 84
20260505035019 49 0 0.0 0.0 0.00 0.00 0.00 84
20260505034033 49 0 0.0 0.0 0.00 0.00 0.00 84
20260505032021 49 0 0.0 0.0 0.00 0.00 0.00 82
20260505025030 50 0 0.0 0.0 0.00 0.00 0.00 81
20260505024023 50 0 0.0 0.0 0.00 0.00 0.00 82
20260505023028 50 0 0.0 0.0 0.00 0.00 0.00 81
20260505022018 51 0 0.0 0.0 0.00 0.00 0.00 80
20260505021023 51 0 0.0 0.0 0.00 0.00 0.00 80
20260505020033 52 0 0.0 0.0 0.00 0.00 0.00 79
20260505015017 52 0 0.0 0.0 0.00 0.00 0.00 79
20260505014019 52 0 0.0 0.0 0.00 0.00 0.00 78
20260505013031 53 0 0.0 0.0 0.00 0.00 0.00 77
20260505012023 53 0 0.0 0.0 0.00 0.00 0.00 78
20260505010033 54 0 0.0 0.0 0.00 0.00 0.00 77
20260505005030 55 0 0.0 0.0 0.00 0.00 0.00 76
20260505004027 55 0 0.0 0.0 0.00 0.00 0.00 76
20260505003032 56 0 0.0 0.0 0.00 0.00 0.00 76